Location: Newark
(43.0000°N, 1.6781°W)
Time: 10:39:24
(UTC+00:00)

Explorer 7 - Pass Details

Date: 25 April 2021
Orbit: 484 x 677 km, 50.3° (Epoch: 07 May)

Event Time Altitude Azimuth Distance (km) Brightness Sun altitude
Rises 22:35:45 0° 300° (WNW) 2,725 11.1 -29.9°
Reaches altitude 10° 22:37:59 10° 305° (NW) 1,861 10.2 -30.1°
Enters shadow 22:40:25 31° 323° (NW) 1,020 8.6 -30.3°
Maximum altitude 22:42:08 52° 22° (NNE) 739 - -30.4°
Drops below altitude 10° 22:46:34 10° 100° (E) 1,977 - -30.7°
Sets 22:49:00 0° 105° (ESE) 2,913 - -30.9°
